Regional Weather Roundup
Issued by NWS Boston, MA

Current Version | Previous Version | Text Only | Print | Product List | Glossary On
Versions: 1 2 3 4 5 6 7 8 9 10 11 12 13 14 15 16 17 18 19 20 21 22 23 24 25 26 27 28 29 30 31 32 33 34 35 36 37 38 39 40 41 42 43 44 45 46 47 48 49 50
479 ASUS41 KBOX 310210 RWRBOX REGIONAL WEATHER ROUNDUP NATIONAL WEATHER SERVICE TAUNTON MA 1000 PM EDT MON MAY 30 2016 NOTE: "FAIR" INDICATES FEW OR NO CLOUDS BELOW 12,000 FEET WITH NO SIGNIFICANT WEATHER AND/OR OBSTRUCTIONS TO VISIBILITY. THE FOLLOWING OBSERVATION LOCATIONS DO NOT REPORT PRESENT WEATHER...PROVINCETOWN... SMITHFIELD...BLOCK ISLAND...KEENE...AND OXFORD. MAZALL-310300- EASTERN MASSACHUSETTS CITY SKY/WX TMP DP RH WIND PRES REMARKS BOSTON CLOUDY 68 66 93 SW12 29.90S BEVERLY CLOUDY 71 66 84 SW13 29.89R LAWRENCE CLOUDY 72 67 84 SW12 29.91R BEDFORD MOCLDY 71 66 84 SW12 29.90R BLUE HILL N/A 67 66 97 SW17 29.92R NORWOOD MOCLDY 71 66 84 SW9 29.92R MARSHFIELD MOCLDY 70 70 100 SW9G20 29.91R PLYMOUTH CLOUDY 69 68 96 SW12 29.94R TAUNTON MOCLDY 71 67 87 SW6 29.93R NEW BEDFORD CLOUDY 68 66 93 SW10 29.94R $$ MAZALL-310300- CAPE COD AND THE ISLANDS CITY SKY/WX TMP DP RH WIND PRES REMARKS FALMOUTH FOG 63 63 100 SW13G21 29.96R VSB 1/4 HYANNIS FOG 64 63 96 SW17 29.95R VSB 1 CHATHAM CLOUDY 62 62 100 SW9G17 29.97R FOG PROVINCETOWN CLOUDY 63 62 97 S13 29.93R FOG NANTUCKET LGT RAIN 61 60 97 SW8 29.99R VSB 1/2 MARTHAS VNYRD FOG 62 62 100 SW8 29.98R VSB 1/2 $$ MAZALL-310300- CENTRAL AND WESTERN MASSACHUSETTS CITY SKY/WX TMP DP RH WIND PRES REMARKS WORCESTER CLOUDY 68 64 87 SW15 29.95R FITCHBURG CLOUDY 73 66 78 SW6 29.92R ORANGE CLOUDY 71 67 87 S5 29.93R SPRINGFIELD MOCLDY 72 67 85 SW9 29.92S WESTFIELD CLOUDY 72 60 66 W10 29.94S NORTH ADAMS NOT AVBL PITTSFIELD CLOUDY 65 60 84 VRB6 29.96S $$ RIZALL-310300- RHODE ISLAND CITY SKY/WX TMP DP RH WIND PRES REMARKS PROVIDENCE CLOUDY 71 67 87 SW12 29.95R NEWPORT CLOUDY 65 65 100 VRB5 29.96R FOG BLOCK ISLAND LGT RAIN 61 61 100 W16 29.99R FOG SMITHFIELD CLOUDY N/A N/A N/A SW7 29.95R WESTERLY CLOUDY 67 64 90 SW7 29.98S $$ CTZALL-310300- CONNECTICUT CITY SKY/WX TMP DP RH WIND PRES REMARKS BRADLEY INTL CLOUDY 73 68 84 SW6 29.94R HARTFORD CLOUDY 74 69 85 S8 29.94S BRIDGEPORT CLOUDY 69 65 86 SW6 29.96R DANBURY CLOUDY 72 68 87 S7 29.97R GROTON CLOUDY 67 67 100 W7 29.97R FOG NEW HAVEN CLOUDY 68 65 90 SW5 29.97R CHESTER CLOUDY 68 68 100 VRB6G12 29.98S MERIDEN CLOUDY 71 67 87 S6 29.96R WILLIMANTIC CLOUDY 72 67 84 SW7 29.96S OXFORD N/A 70 66 88 S6 29.98S $$ MEZ002-015-021-024-NHZ003-005-008-011-012-014-VTZ005-008-310300- NORTHERN NEW ENGLAND CITY SKY/WX TMP DP RH WIND PRES REMARKS PORTLAND ME CLOUDY 62 59 90 CALM 29.85R BANGOR ME MOCLDY 62 56 80 S13 29.82F CONCORD NH CLOUDY 73 66 78 S6 29.88R MANCHESTER NH CLOUDY 73 65 75 S8 29.86S NASHUA NH CLOUDY 72 68 87 CALM 29.89S PORTSMOUTH NH CLOUDY 72 67 84 SW7 29.85R JAFFREY NH CLOUDY 70 66 87 SW7 29.94R KEENE NH CLOUDY N/A N/A N/A CALM 29.91S BURLINGTON VT FAIR 77 52 41 SW7 29.85R MT. WASHINGTON CLOUDY 52 51 97 W48 N/A $$ NYZ052-076-310300- EASTERN NEW YORK CITY SKY/WX TMP DP RH WIND PRES REMARKS ALBANY CLOUDY 70 66 87 S8 29.92R NEW YORK CITY CLOUDY 74 72 93 S9 29.94S $$ ANZALL-310300- MARINE OBSERVATIONS STATION/POSITION TIME TEMP WIND PRES VSBY WAVE AIR SEA DIR/SP/G HT/PER (UTC) (F) (DEG/KT/KT) (MB) (MI) (FT/S) BOSTON BUOY 0150 63 57 190/ 6/ 8 1012.6R 1/ 5 BUZZARDS BAY 0100 61 240/ 20/ 22 1014.6R NANTUCKET SOUND 0150 61 59 230/ 12/ 14 1014.6R 1/ 4 MASS BAY-STELLWA 0104 59 55 N/A 1 3/4 1/ 5 ISLE OF SHOALS 0100 67 210/ 22/ 22 1010.5S S OF BLOCK IS 0125 58 N/A 4/ 7 $$ ......................KEY......................... SKY/WX - SKY CONDITION/PRESENT WEATHER TMP - TEMPERATURE IN FAHRENHEIT DWPT - DEWPOINT IN FAHRENHEIT RH - RELATIVE HUMIDITY IN PERCENT WIND - DIRECTION AND SPEED IN MPH PRES - MEAN SEA LEVEL PRESSURE IN INCHES OF HG WCI - WIND CHILL INDEX VSB - VISIBILITY IN MILES HX - HEAT INDEX TC - TEMPERATURE IN CELSIUS VRB - VARIABLE WIND DIRECTION N/A - NOT AVAILABLE

USA.gov is the U.S. government's official web portal to all federal, state and local government web resources and services.